Point Salines, Grenada

2:27 PM AST on October 22, 2017 (GMT -0400)
Point Salines International

Weather History for TGPY - November, 2013

Change the Weather History Date:

Sunday, November 3, 2013

  Actual Average Record
Temperature  
Mean Temperature 82 °F -  
Max Temperature 86 °F 84 °F 89 °F (2003)
Min Temperature 79 °F 75 °F 74 °F (2015)
Cooling Degree Days 18    
Growing Degree Days 32 (Base 50)    
Moisture  
Dew Point 77 °F    
Average Humidity 80    
Maximum Humidity 89    
Minimum Humidity 70    
Precipitation  
Precipitation 0.00 in - - ()
Sea Level Pressure  
Sea Level Pressure 29.88 in    
Wind  
Wind Speed 13 mph ()    
Max Wind Speed 21 mph    
Max Gust Speed -    
Visibility 7.2 miles    
Events Rain , Thunderstorm    
Averages and records for this station are not official NWS values.
T = Trace of Precipitation, MM = Missing Value Source: Averaged Metar Reports

Daily Weather History Graph

Daily Weather History Graph

Search for Another Location

Airport or City:

Trip Planner

Search our weather history database for the weather conditions in past years. The results will help you decide how hot, cold, wet, or windy it might be!

Date:

Astronomy

Nov. 03, 2013 Rise Set
Actual Time 6:00 AM AST 5:40 PM AST
Civil Twilight 5:38 AM AST 6:02 PM AST
Nautical Twilight 5:13 AM AST 6:27 PM AST
Astronomical Twilight 4:48 AM AST 6:53 PM AST
Moon 5:57 AM AST (11/3) 5:56 PM AST (11/3)
Length of Visible Light 12h 24m
Length of Day
11h 40m
New Moon, 0% of the Moon is Illuminated
Nov 3
New Moon
Nov 10
First Quarter
Nov 17
Full
Nov 25
Last Quarter
Dec 2
New

Hourly Weather History & Observations

Time (AST) Temp. Heat Index Dew Point Humidity Pressure Visibility Wind Dir Wind Speed Gust Speed Precip Events Conditions
12:00 AM 82.4 °F 89.5 °F 75.2 °F 79% 29.89 in 6.2 mi ESE 15.0 mph - N/A   Mostly Cloudy
1:00 AM 80.6 °F 86.2 °F 75.2 °F 84% 29.89 in 6.2 mi ESE 15.0 mph - N/A   Scattered Clouds
2:00 AM 82 °F - 75 °F 75% 29.87 in 9 mi East 11.5 mph - -   Widespread Dust
2:00 AM 82.4 °F 89.5 °F 75.2 °F 79% 29.86 in 6.2 mi East 11.5 mph - N/A   Mostly Cloudy
3:00 AM 82.4 °F 89.5 °F 75.2 °F 79% 29.86 in 6.2 mi ESE 12.7 mph - N/A   Mostly Cloudy
4:00 AM 80.6 °F 86.2 °F 75.2 °F 84% 29.83 in 6.2 mi ESE 11.5 mph - N/A   Mostly Cloudy
5:00 AM 80.6 °F 86.2 °F 75.2 °F 84% 29.83 in 6.2 mi ESE 16.1 mph - N/A   Scattered Clouds
6:00 AM 80.6 °F 86.2 °F 75.2 °F 84% 29.86 in - ESE 17.3 mph - N/A   Mostly Cloudy
7:00 AM 82.4 °F 89.5 °F 75.2 °F 79% 29.89 in 6.2 mi SE 20.7 mph - N/A   Scattered Clouds
8:00 AM 83 °F - 76 °F 75% 29.91 in 9 mi SE 17.3 mph - -   Widespread Dust
8:00 AM 80.6 °F 87.1 °F 77.0 °F 89% 29.92 in 6.2 mi SE 17.3 mph - N/A   Scattered Clouds
9:00 AM 84.2 °F 96.1 °F 78.8 °F 84% 29.92 in 6.2 mi SE 18.4 mph - N/A   Scattered Clouds
10:00 AM 86.0 °F 96.9 °F 77.0 °F 74% 29.92 in 6.2 mi SE 17.3 mph - N/A   Scattered Clouds
11:00 AM 86 °F - 78 °F 70% 29.92 in 10 mi ESE 18.4 mph - -   Widespread Dust
11:00 AM 86.0 °F 96.9 °F 77.0 °F 74% 29.92 in 6.2 mi ESE 18.4 mph - N/A   Scattered Clouds
12:00 PM 84.2 °F 94.1 °F 77.0 °F 79% 29.89 in 6.2 mi ESE 17.3 mph - N/A   Scattered Clouds
1:00 PM 86.0 °F 99.3 °F 78.8 °F 79% 29.86 in 6.2 mi ESE 20.7 mph - N/A Rain Light Rain Showers
2:00 PM 85 °F - 78 °F 73% 29.85 in 10 mi SE 16.1 mph - -   Widespread Dust
2:00 PM 86.0 °F 96.9 °F 77.0 °F 74% 29.83 in 6.2 mi SE 16.1 mph - N/A   Scattered Clouds
3:00 PM 86.0 °F 99.3 °F 78.8 °F 79% 29.83 in 6.2 mi ESE 16.1 mph - N/A   Scattered Clouds
4:00 PM 84.2 °F 94.1 °F 77.0 °F 79% 29.83 in 6.2 mi ESE 16.1 mph - N/A   Partly Cloudy
5:00 PM 83 °F - 77 °F 78% 29.84 in 12 mi ESE 15.0 mph - -   Widespread Dust
5:00 PM 84.2 °F 94.1 °F 77.0 °F 79% 29.83 in 6.2 mi ESE 15.0 mph - N/A   Partly Cloudy
6:00 PM 82.4 °F 90.9 °F 77.0 °F 84% 29.86 in 6.2 mi East 11.5 mph - N/A   Mostly Cloudy
7:00 PM 82.4 °F 90.9 °F 77.0 °F 84% 29.86 in 6.2 mi East 11.5 mph - N/A Thunderstorm Partly Cloudy
8:00 PM 82 °F - 76 °F 79% 29.91 in 12 mi SE 12.7 mph - -   Widespread Dust
8:00 PM 82.4 °F 90.9 °F 77.0 °F 84% 29.89 in 6.2 mi SE 12.7 mph - N/A   Partly Cloudy
9:00 PM 82.4 °F 90.9 °F 77.0 °F 84% 29.92 in 6.2 mi ESE 12.7 mph - N/A   Scattered Clouds
10:00 PM 80.6 °F 87.1 °F 77.0 °F 89% 29.92 in 6.2 mi East 8.1 mph - N/A   Partly Cloudy
11:00 PM 81 °F - 77 °F 83% 29.91 in 12 mi ESE 9.2 mph - -   Widespread Dust
11:00 PM 80.6 °F 87.1 °F 77.0 °F 89% 29.89 in 6.2 mi ESE 9.2 mph - N/A   Mostly Cloudy